Location: Sungai Liu
(2.3667°N, 113.8667°E)
Time: 11:46:21
(UTC+00:00)

ARIANE 5 DEB (SYLDA) - Pass Details

Date: 20 May 2022
Orbit: 628 x 35687 km, 7.1° (Epoch: 04 July)

Event Time Altitude Azimuth Distance (km) Brightness Sun altitude
Exits shadow 20:23:42 79° 90° (E) 700 3.2 -26.5°
Drops below altitude 10° 20:29:21 10° 97° (E) 3,259 7.5 -25.2°
Sets 20:34:17 0° 97° (E) 5,670 8.9 -24.0°
